Location: Br�znic
(45.9167°N, 22.6500°E)
Time: 13:09:20
(UTC+00:00)

MetOp-A - Pass Details

Date: 03 March 2021
Orbit: 819 x 821 km, 98.5° (Epoch: 12 April)

Event Time Altitude Azimuth Distance (km) Brightness Sun altitude
Exits shadow 17:45:42 - 152° (SSE) 2,781 6.6 -15.9°
Reaches altitude 10° 17:46:39 10° 151° (SSE) 2,413 6.2 -16.0°
Maximum altitude 17:51:54 62° 72° (ENE) 921 4.1 -16.9°
Drops below altitude 10° 17:57:13 10° 352° (N) 2,430 6.8 -17.9°
Sets 17:59:35 0° 350° (N) 3,366 7.6 -18.3°
